CSN3408 ZPPP-ZGGG

Flight info

Callsign CSN3408
Flight time 1h 57m
Altitude 33100
Route LXI A599 GYA
Aircraft A20N/M-SDE2E3FGHIJ3J4J5M1RWXYZ/LB1

Departure

Time 2026-05-01 09:48
Airport Kunming Changshui International Airport (ZPPP)

Arrival

Time 2026-05-01 11:46
Airport Guangzhou Baiyun International Airport (ZGGG)
Time Latitude Longitude Altitude Speed Heading
2026-05-01 09:24 25.10513 102.93044 6901 ft 0 kts 245°
2026-05-01 09:33 25.10534 102.93092 6900 ft 4 kts 240°
2026-05-01 09:34 25.10546 102.93111 6900 ft 2 kts 219°
2026-05-01 09:34 25.10568 102.93124 6900 ft 4 kts 184°
2026-05-01 09:34 25.10621 102.93114 6900 ft 4 kts 168°
2026-05-01 09:35 25.10647 102.93106 6901 ft 4 kts 163°
2026-05-01 09:35 25.10658 102.93103 6901 ft 0 kts 165°
2026-05-01 09:37 25.10648 102.93116 6901 ft 2 kts 111°
2026-05-01 09:37 25.10653 102.93139 6900 ft 4 kts 56°
2026-05-01 09:38 25.10721 102.93197 6900 ft 9 kts 39°
2026-05-01 09:38 25.10774 102.93244 6900 ft 11 kts 39°
2026-05-01 09:38 25.10827 102.93289 6899 ft 0 kts 38°
2026-05-01 09:39 25.10858 102.93308 6899 ft 4 kts 11°
2026-05-01 09:39 25.10883 102.93293 6900 ft 4 kts 298°
2026-05-01 09:39 25.10902 102.93266 6900 ft 5 kts 310°
2026-05-01 09:40 25.10928 102.93230 6901 ft 7 kts 308°
2026-05-01 09:40 25.10999 102.93131 6902 ft 10 kts 308°
2026-05-01 09:40 25.11044 102.93068 6902 ft 11 kts 308°
2026-05-01 09:41 25.11096 102.92997 6903 ft 13 kts 308°
2026-05-01 09:41 25.11219 102.92835 6919 ft 15 kts 331°
2026-05-01 09:41 25.11303 102.92878 6904 ft 15 kts 39°
2026-05-01 09:42 25.11392 102.92955 6904 ft 17 kts 38°
2026-05-01 09:42 25.11493 102.93043 6903 ft 20 kts 38°
2026-05-01 09:42 25.11731 102.93251 6901 ft 24 kts 38°
2026-05-01 09:43 25.11979 102.93465 6900 ft 19 kts 38°
2026-05-01 09:43 25.12091 102.93562 6900 ft 21 kts 38°
2026-05-01 09:43 25.12213 102.93669 6899 ft 23 kts 38°
2026-05-01 09:44 25.12482 102.93902 6898 ft 22 kts 38°
2026-05-01 09:44 25.12608 102.94011 6897 ft 24 kts 38°
2026-05-01 09:44 25.12743 102.94129 6896 ft 25 kts 38°
2026-05-01 09:45 25.12869 102.94238 6895 ft 22 kts 38°
2026-05-01 09:45 25.12955 102.94288 6895 ft 1 kts 298°
2026-05-01 09:45 25.12958 102.94270 6895 ft 4 kts 283°
2026-05-01 09:46 25.12969 102.94253 6895 ft 0 kts 308°
2026-05-01 09:46 25.12974 102.94246 6895 ft 3 kts 308°
2026-05-01 09:46 25.12993 102.94219 6894 ft 6 kts 308°
2026-05-01 09:46 25.13029 102.94169 6893 ft 10 kts 308°
2026-05-01 09:47 25.13009 102.94117 6893 ft 8 kts 217°
2026-05-01 09:47 25.12960 102.94075 6894 ft 12 kts 219°
2026-05-01 09:47 25.12734 102.93879 6896 ft 73 kts 217°
2026-05-01 09:47 25.12192 102.93407 6899 ft 123 kts 218°
2026-05-01 09:48 25.11407 102.92729 6905 ft 162 kts 218°
2026-05-01 09:48 25.10459 102.91895 7128 ft 176 kts 218°
2026-05-01 09:48 25.09552 102.91065 7902 ft 168 kts 227°
2026-05-01 09:48 25.08861 102.90020 8327 ft 174 kts 237°
2026-05-01 09:49 25.08203 102.88869 8742 ft 183 kts 238°
2026-05-01 09:49 25.07455 102.87643 9000 ft 203 kts 236°
2026-05-01 09:49 25.06594 102.86329 9343 ft 221 kts 235°
2026-05-01 09:49 25.05631 102.84908 9681 ft 240 kts 234°
2026-05-01 09:50 25.04605 102.83413 10414 ft 245 kts 234°
2026-05-01 09:50 25.03560 102.81875 11030 ft 252 kts 235°
2026-05-01 09:50 25.02530 102.80361 12078 ft 244 kts 235°
2026-05-01 09:50 25.01501 102.78848 12840 ft 250 kts 235°
2026-05-01 09:51 25.00429 102.77308 13549 ft 255 kts 229°
2026-05-01 09:51 24.99527 102.76460 14017 ft 263 kts 216°
2026-05-01 09:51 24.97768 102.75751 14595 ft 278 kts 192°
2026-05-01 09:51 24.95155 102.76194 15478 ft 299 kts 159°
2026-05-01 09:52 24.93464 102.77610 16118 ft 315 kts 135°
2026-05-01 09:52 24.92610 102.78918 16565 ft 321 kts 127°
2026-05-01 09:52 24.91433 102.81042 17185 ft 327 kts 125°
2026-05-01 09:52 24.90281 102.83216 17854 ft 331 kts 125°
2026-05-01 09:53 24.89103 102.85411 18446 ft 334 kts 126°
2026-05-01 09:53 24.87895 102.87609 19013 ft 337 kts 126°
2026-05-01 09:53 24.86662 102.89813 19585 ft 339 kts 126°
2026-05-01 09:53 24.85413 102.92029 20105 ft 344 kts 126°
2026-05-01 09:54 24.84118 102.94314 20271 ft 360 kts 126°
2026-05-01 09:54 24.82755 102.96706 20392 ft 376 kts 126°
2026-05-01 09:54 24.81333 102.99194 20534 ft 392 kts 126°
2026-05-01 09:54 24.79864 103.01789 20658 ft 407 kts 124°
2026-05-01 09:55 24.78537 103.04618 20791 ft 425 kts 116°
2026-05-01 09:55 24.77447 103.07705 20944 ft 437 kts 113°
2026-05-01 09:55 24.76366 103.10837 21494 ft 439 kts 114°
2026-05-01 09:55 24.75273 103.13986 22016 ft 442 kts 114°
2026-05-01 09:56 24.74164 103.17168 22392 ft 448 kts 114°
2026-05-01 09:56 24.73038 103.20382 22900 ft 451 kts 114°
2026-05-01 09:56 24.71919 103.23568 23340 ft 455 kts 114°
2026-05-01 09:56 24.70772 103.26827 23757 ft 457 kts 114°
2026-05-01 09:57 24.69622 103.30095 24185 ft 459 kts 114°
2026-05-01 09:57 24.68466 103.33374 24609 ft 461 kts 114°
2026-05-01 09:57 24.67302 103.36674 24999 ft 464 kts 114°
2026-05-01 09:57 24.66133 103.39988 25420 ft 466 kts 113°
2026-05-01 09:58 24.64958 103.43316 25813 ft 468 kts 113°
2026-05-01 09:58 24.63778 103.46661 26189 ft 470 kts 113°
2026-05-01 09:58 24.62590 103.50020 26521 ft 473 kts 113°
2026-05-01 09:58 24.61391 103.53401 26843 ft 476 kts 113°
2026-05-01 09:59 24.60185 103.56802 27207 ft 478 kts 113°
2026-05-01 09:59 24.58976 103.60212 27533 ft 481 kts 113°
2026-05-01 09:59 24.57760 103.63641 27921 ft 482 kts 112°
2026-05-01 09:59 24.56539 103.67080 28229 ft 485 kts 113°
2026-05-01 10:00 24.55308 103.70541 28499 ft 488 kts 112°
2026-05-01 10:00 24.54123 103.74039 28895 ft 488 kts 108°
2026-05-01 10:00 24.53259 103.77661 29131 ft 493 kts 103°
2026-05-01 10:00 24.52491 103.81342 29404 ft 495 kts 103°
2026-05-01 10:01 24.51719 103.85030 29756 ft 496 kts 103°
2026-05-01 10:01 24.50938 103.88739 29939 ft 501 kts 103°
2026-05-01 10:01 24.50159 103.92419 30239 ft 501 kts 103°
2026-05-01 10:01 24.49368 103.96153 30464 ft 504 kts 103°
2026-05-01 10:02 24.48569 103.99912 30688 ft 506 kts 103°
2026-05-01 10:02 24.47771 104.03670 31026 ft 506 kts 103°
2026-05-01 10:02 24.46968 104.07443 31243 ft 509 kts 103°
2026-05-01 10:02 24.46162 104.11225 31631 ft 508 kts 104°
2026-05-01 10:03 24.45357 104.14996 31979 ft 508 kts 104°
2026-05-01 10:03 24.44551 104.18768 32397 ft 506 kts 104°
2026-05-01 10:03 24.43748 104.22521 32724 ft 505 kts 103°
2026-05-01 10:03 24.42951 104.26231 32841 ft 493 kts 103°
2026-05-01 10:04 24.41385 104.33534 32857 ft 494 kts 103°
2026-05-01 10:04 24.39806 104.40878 32848 ft 494 kts 103°
2026-05-01 10:05 24.38225 104.48204 32853 ft 494 kts 103°
2026-05-01 10:05 24.36641 104.55533 32842 ft 494 kts 103°
2026-05-01 10:06 24.35052 104.62862 32841 ft 494 kts 103°
2026-05-01 10:06 24.33462 104.70180 32835 ft 493 kts 103°
2026-05-01 10:07 24.31869 104.77489 32831 ft 492 kts 103°
2026-05-01 10:07 24.30276 104.84788 32829 ft 492 kts 103°
2026-05-01 10:08 24.27891 104.95669 32842 ft 490 kts 103°
2026-05-01 10:09 24.26300 105.02922 32849 ft 490 kts 103°
2026-05-01 10:09 24.24697 105.10206 32860 ft 490 kts 104°
2026-05-01 10:10 24.23093 105.17471 32855 ft 491 kts 104°
2026-05-01 10:10 24.20589 105.28355 32853 ft 490 kts 105°
2026-05-01 10:11 24.18803 105.35653 32858 ft 502 kts 107°
2026-05-01 10:11 24.17003 105.43043 32864 ft 501 kts 107°
2026-05-01 10:12 24.15223 105.50371 32865 ft 500 kts 107°
2026-05-01 10:13 24.12524 105.61418 32863 ft 502 kts 107°
2026-05-01 10:13 24.10728 105.68794 32863 ft 503 kts 109°
2026-05-01 10:14 24.08377 105.80054 32869 ft 507 kts 105°
2026-05-01 10:14 24.06953 105.87600 32864 ft 507 kts 105°
2026-05-01 10:15 24.05479 105.95158 32880 ft 508 kts 105°
2026-05-01 10:15 24.03990 106.02702 32880 ft 509 kts 106°
2026-05-01 10:16 24.02489 106.10269 32887 ft 509 kts 106°
2026-05-01 10:17 24.00234 106.21604 32890 ft 508 kts 106°
2026-05-01 10:17 23.97969 106.32949 32890 ft 509 kts 106°
2026-05-01 10:18 23.95698 106.44267 32899 ft 511 kts 106°
2026-05-01 10:19 23.94172 106.51853 32906 ft 511 kts 106°
2026-05-01 10:19 23.92670 106.59445 32905 ft 513 kts 103°
2026-05-01 10:20 23.91744 106.71160 32919 ft 517 kts 97°
2026-05-01 10:20 23.91217 106.78996 32927 ft 517 kts 97°
2026-05-01 10:21 23.90415 106.90751 32929 ft 518 kts 97°
2026-05-01 10:22 23.89605 107.02515 32938 ft 517 kts 97°
2026-05-01 10:23 23.88783 107.14278 32942 ft 518 kts 97°
2026-05-01 10:23 23.87958 107.26047 32950 ft 518 kts 97°
2026-05-01 10:24 23.86835 107.41744 32948 ft 515 kts 97°
2026-05-01 10:25 23.85717 107.57166 32954 ft 511 kts 97°
2026-05-01 10:26 23.85151 107.64917 32963 ft 512 kts 97°
2026-05-01 10:27 23.84009 107.80365 32961 ft 505 kts 96°
2026-05-01 10:28 23.83268 107.91878 32967 ft 507 kts 94°
2026-05-01 10:28 23.82731 108.03416 32970 ft 507 kts 95°
2026-05-01 10:29 23.82145 108.14940 32957 ft 505 kts 95°
2026-05-01 10:30 23.81302 108.30194 32956 ft 505 kts 95°
2026-05-01 10:31 23.80431 108.45507 32975 ft 506 kts 95°
2026-05-01 10:32 23.79769 108.57051 32978 ft 507 kts 95°
2026-05-01 10:33 23.78873 108.72434 32979 ft 508 kts 95°
2026-05-01 10:34 23.78192 108.83950 32993 ft 505 kts 95°
2026-05-01 10:34 23.77734 108.91603 32977 ft 504 kts 95°
2026-05-01 10:35 23.77043 109.03051 32972 ft 503 kts 95°
2026-05-01 10:35 23.76578 109.10668 32968 ft 503 kts 95°
2026-05-01 10:36 23.74874 109.21899 32963 ft 499 kts 104°
2026-05-01 10:37 23.73383 109.29309 32981 ft 501 kts 104°
2026-05-01 10:37 23.71133 109.40470 32981 ft 502 kts 104°
2026-05-01 10:38 23.69636 109.47860 32981 ft 502 kts 104°
2026-05-01 10:38 23.68124 109.55306 32989 ft 502 kts 104°
2026-05-01 10:39 23.66610 109.62743 32990 ft 502 kts 104°
2026-05-01 10:39 23.65081 109.70172 32994 ft 502 kts 104°
2026-05-01 10:40 23.63545 109.77604 32993 ft 502 kts 104°
2026-05-01 10:40 23.62008 109.85028 33008 ft 502 kts 104°
2026-05-01 10:41 23.60469 109.92442 33016 ft 501 kts 104°
2026-05-01 10:42 23.58158 110.03553 33014 ft 501 kts 104°
2026-05-01 10:42 23.56623 110.10904 33013 ft 501 kts 104°
2026-05-01 10:43 23.55328 110.17094 33011 ft 497 kts 104°
2026-05-01 10:43 23.53538 110.25627 33009 ft 498 kts 104°
2026-05-01 10:44 23.52244 110.31782 33011 ft 497 kts 104°
2026-05-01 10:44 23.50702 110.39135 33006 ft 498 kts 104°
2026-05-01 10:45 23.49222 110.46449 33001 ft 498 kts 104°
2026-05-01 10:45 23.47734 110.53805 33021 ft 497 kts 104°
2026-05-01 10:46 23.46237 110.61150 33021 ft 497 kts 104°
2026-05-01 10:46 23.44736 110.68488 33019 ft 496 kts 104°
2026-05-01 10:47 23.43224 110.75818 33016 ft 496 kts 104°
2026-05-01 10:47 23.41678 110.83127 33024 ft 495 kts 104°
2026-05-01 10:48 23.40134 110.90419 33022 ft 494 kts 104°
2026-05-01 10:48 23.38591 110.97702 33015 ft 493 kts 104°
2026-05-01 10:49 23.37047 111.04977 33012 ft 493 kts 104°
2026-05-01 10:49 23.35502 111.12242 33008 ft 492 kts 104°
2026-05-01 10:50 23.33976 111.19502 33013 ft 492 kts 104°
2026-05-01 10:50 23.32504 111.26765 33011 ft 492 kts 104°
2026-05-01 10:51 23.31024 111.34026 33012 ft 491 kts 104°
2026-05-01 10:51 23.29535 111.41278 33013 ft 491 kts 104°
2026-05-01 10:52 23.28042 111.48529 33013 ft 491 kts 104°
2026-05-01 10:52 23.26540 111.55783 33021 ft 492 kts 104°
2026-05-01 10:53 23.25005 111.63032 33020 ft 492 kts 104°
2026-05-01 10:53 23.23465 111.70280 33025 ft 492 kts 104°
2026-05-01 10:54 23.21924 111.77534 33029 ft 492 kts 104°
2026-05-01 10:54 23.20382 111.84786 33037 ft 492 kts 104°
2026-05-01 10:55 23.18876 111.92049 33033 ft 493 kts 104°
2026-05-01 10:55 23.17381 111.99263 33042 ft 493 kts 104°
2026-05-01 10:56 23.15868 112.06521 33042 ft 492 kts 104°
2026-05-01 10:56 23.14356 112.13751 32638 ft 487 kts 104°
2026-05-01 10:56 23.13602 112.17344 31625 ft 489 kts 104°
2026-05-01 10:57 23.12843 112.20963 30328 ft 494 kts 104°
2026-05-01 10:57 23.12071 112.24634 28711 ft 502 kts 104°
2026-05-01 10:57 23.11295 112.28319 27601 ft 497 kts 104°
2026-05-01 10:57 23.10531 112.31951 26660 ft 489 kts 104°
2026-05-01 10:58 23.09777 112.35527 25697 ft 482 kts 104°
2026-05-01 10:58 23.09035 112.39046 24771 ft 475 kts 103°
2026-05-01 10:58 23.08300 112.42521 23868 ft 469 kts 103°
2026-05-01 10:58 23.07576 112.45950 22881 ft 463 kts 103°
2026-05-01 10:59 23.07080 112.49384 21840 ft 458 kts 95°
2026-05-01 10:59 23.06975 112.52824 20845 ft 453 kts 90°
2026-05-01 10:59 23.06975 112.56183 19899 ft 448 kts 90°
2026-05-01 10:59 23.06967 112.59549 18991 ft 444 kts 90°
2026-05-01 11:00 23.06955 112.62881 18073 ft 439 kts 91°
2026-05-01 11:00 23.06941 112.66179 17084 ft 434 kts 91°
2026-05-01 11:00 23.06927 112.69426 16176 ft 427 kts 91°
2026-05-01 11:00 23.06913 112.72626 15282 ft 421 kts 91°
2026-05-01 11:01 23.06898 112.75782 14422 ft 415 kts 91°
2026-05-01 11:01 23.06883 112.78898 13563 ft 410 kts 91°
2026-05-01 11:01 23.06868 112.81978 12640 ft 405 kts 91°
2026-05-01 11:01 23.06852 112.85014 11798 ft 399 kts 91°
2026-05-01 11:02 23.06837 112.87989 11138 ft 389 kts 91°
2026-05-01 11:02 23.06819 112.90883 10553 ft 377 kts 91°
2026-05-01 11:02 23.06797 112.93656 10307 ft 357 kts 91°
2026-05-01 11:02 23.06775 112.96276 10118 ft 337 kts 91°
2026-05-01 11:03 23.06753 112.98763 9814 ft 324 kts 91°
2026-05-01 11:03 23.06731 113.01187 9282 ft 318 kts 91°
2026-05-01 11:03 23.06710 113.03543 9012 ft 307 kts 91°
2026-05-01 11:03 23.06688 113.05887 8818 ft 315 kts 91°
2026-05-01 11:04 23.06585 113.08274 8434 ft 317 kts 99°
2026-05-01 11:04 23.06118 113.10578 8101 ft 308 kts 107°
2026-05-01 11:04 23.05589 113.12812 7625 ft 303 kts 106°
2026-05-01 11:04 23.05079 113.15013 7118 ft 299 kts 105°
2026-05-01 11:05 23.04580 113.17177 6686 ft 292 kts 105°
2026-05-01 11:05 23.04105 113.19293 6261 ft 285 kts 101°
2026-05-01 11:05 23.04140 113.21420 5687 ft 286 kts 76°
2026-05-01 11:05 23.05038 113.23328 5134 ft 285 kts 48°
2026-05-01 11:06 23.06621 113.24548 4929 ft 284 kts 20°
2026-05-01 11:06 23.08500 113.24850 4875 ft 263 kts 353°
2026-05-01 11:06 23.10226 113.24511 4799 ft 244 kts 347°
2026-05-01 11:07 23.13494 113.24277 4225 ft 234 kts
2026-05-01 11:07 23.15114 113.24518 4042 ft 236 kts 10°
2026-05-01 11:07 23.16713 113.24881 3820 ft 234 kts 13°
2026-05-01 11:07 23.18267 113.25290 3600 ft 234 kts 14°
2026-05-01 11:08 23.19855 113.25726 3170 ft 237 kts 14°
2026-05-01 11:08 23.21439 113.26161 2861 ft 231 kts 15°
2026-05-01 11:08 23.24524 113.27002 2151 ft 227 kts 14°
2026-05-01 11:09 23.26045 113.27416 1868 ft 224 kts 14°
2026-05-01 11:09 23.27564 113.27827 1931 ft 228 kts 14°
2026-05-01 11:09 23.29106 113.28244 1937 ft 228 kts 14°
2026-05-01 11:10 23.32177 113.29072 1937 ft 227 kts 14°
2026-05-01 11:10 23.33709 113.29486 1937 ft 227 kts 14°
2026-05-01 11:10 23.35239 113.29899 1937 ft 227 kts 14°
2026-05-01 11:10 23.36767 113.30311 1938 ft 226 kts 14°
2026-05-01 11:11 23.38298 113.30724 1940 ft 227 kts 14°
2026-05-01 11:11 23.39826 113.31136 1938 ft 226 kts 14°
2026-05-01 11:11 23.41358 113.31550 1937 ft 226 kts 14°
2026-05-01 11:11 23.42883 113.31961 1938 ft 225 kts 15°
2026-05-01 11:12 23.44402 113.32371 1938 ft 226 kts 15°
2026-05-01 11:12 23.45936 113.32787 1940 ft 227 kts 14°
2026-05-01 11:12 23.47471 113.33202 1940 ft 226 kts 14°
2026-05-01 11:12 23.48987 113.33611 1940 ft 224 kts 15°
2026-05-01 11:13 23.50507 113.34021 1940 ft 225 kts 15°
2026-05-01 11:13 23.52031 113.34434 1944 ft 226 kts 14°
2026-05-01 11:13 23.53544 113.34845 1941 ft 228 kts 14°
2026-05-01 11:13 23.55077 113.35261 1942 ft 225 kts 14°
2026-05-01 11:14 23.56603 113.35669 1946 ft 225 kts 15°
2026-05-01 11:14 23.58045 113.36076 1933 ft 204 kts 23°
2026-05-01 11:14 23.59166 113.36971 1945 ft 204 kts 57°
2026-05-01 11:14 23.59617 113.38369 1943 ft 194 kts 95°
2026-05-01 11:15 23.59199 113.39701 1966 ft 179 kts 132°
2026-05-01 11:15 23.58216 113.40316 1936 ft 156 kts 176°
2026-05-01 11:15 23.57242 113.40054 1939 ft 137 kts 204°
2026-05-01 11:15 23.56355 113.39593 1939 ft 145 kts 205°
2026-05-01 11:16 23.55457 113.39125 1932 ft 141 kts 205°
2026-05-01 11:16 23.54592 113.38601 1936 ft 146 kts 225°
2026-05-01 11:16 23.53921 113.37792 1920 ft 142 kts 206°
2026-05-01 11:16 23.53010 113.37456 1964 ft 141 kts 194°
2026-05-01 11:17 23.52068 113.37189 1945 ft 138 kts 193°
2026-05-01 11:17 23.51127 113.36925 1942 ft 141 kts 193°
2026-05-01 11:17 23.50208 113.36662 1946 ft 132 kts 193°
2026-05-01 11:17 23.49333 113.36408 1984 ft 133 kts 194°
2026-05-01 11:18 23.48439 113.36150 1941 ft 129 kts 193°
2026-05-01 11:18 23.47567 113.35894 1939 ft 130 kts 193°
2026-05-01 11:18 23.46695 113.35641 1938 ft 130 kts 194°
2026-05-01 11:18 23.45824 113.35392 1938 ft 129 kts 193°
2026-05-01 11:19 23.44951 113.35139 1939 ft 131 kts 193°
2026-05-01 11:19 23.44067 113.34881 1938 ft 131 kts 193°
2026-05-01 11:19 23.43184 113.34622 1940 ft 132 kts 193°
2026-05-01 11:19 23.42304 113.34364 1936 ft 129 kts 194°
2026-05-01 11:20 23.41437 113.34115 1937 ft 129 kts 193°
2026-05-01 11:20 23.40568 113.33865 1938 ft 129 kts 194°
2026-05-01 11:20 23.39696 113.33614 1934 ft 129 kts 193°
2026-05-01 11:20 23.38817 113.33354 1940 ft 132 kts 193°
2026-05-01 11:21 23.37934 113.33093 1940 ft 131 kts 193°
2026-05-01 11:21 23.37055 113.32833 1937 ft 131 kts 193°
2026-05-01 11:21 23.36181 113.32573 1939 ft 130 kts 194°
2026-05-01 11:21 23.35303 113.32314 1939 ft 130 kts 194°
2026-05-01 11:22 23.34441 113.32063 1938 ft 130 kts 193°
2026-05-01 11:22 23.33569 113.31810 1938 ft 130 kts 193°
2026-05-01 11:22 23.32694 113.31556 1940 ft 130 kts 193°
2026-05-01 11:22 23.31819 113.31301 1939 ft 130 kts 193°
2026-05-01 11:23 23.30947 113.31048 1939 ft 130 kts 193°
2026-05-01 11:23 23.30074 113.30794 1940 ft 130 kts 194°
2026-05-01 11:23 23.29196 113.30540 1938 ft 130 kts 194°
2026-05-01 11:23 23.28322 113.30288 1939 ft 130 kts 193°
2026-05-01 11:24 23.27448 113.30035 1939 ft 130 kts 194°
2026-05-01 11:24 23.26575 113.29785 1939 ft 130 kts 193°
2026-05-01 11:24 23.24877 113.29170 1931 ft 131 kts 221°
2026-05-01 11:25 23.24576 113.28241 1929 ft 140 kts 275°
2026-05-01 11:25 23.26180 113.27429 1805 ft 146 kts 13°
2026-05-01 11:25 23.27159 113.27714 1749 ft 147 kts 19°
2026-05-01 11:26 23.28147 113.27999 1680 ft 146 kts 15°
2026-05-01 11:26 23.30113 113.28528 1469 ft 144 kts 15°
2026-05-01 11:26 23.31078 113.28788 1302 ft 143 kts 15°
2026-05-01 11:27 23.32033 113.29045 1126 ft 141 kts 15°
2026-05-01 11:27 23.32984 113.29301 961 ft 140 kts 15°
2026-05-01 11:27 23.33926 113.29555 796 ft 139 kts 14°
2026-05-01 11:27 23.34858 113.29804 622 ft 139 kts 15°
2026-05-01 11:28 23.35798 113.30042 464 ft 138 kts 14°
2026-05-01 11:28 23.36719 113.30298 243 ft 138 kts 17°
2026-05-01 11:28 23.37651 113.30563 95 ft 138 kts 15°
2026-05-01 11:29 23.39541 113.31059 520 ft 155 kts 13°
2026-05-01 11:29 23.40609 113.31335 1202 ft 156 kts 15°
2026-05-01 11:29 23.42700 113.31898 2653 ft 158 kts 15°
2026-05-01 11:30 23.43403 113.32089 3055 ft 156 kts 16°
2026-05-01 11:30 23.44778 113.32469 3904 ft 150 kts 15°
2026-05-01 11:30 23.45455 113.32657 4259 ft 154 kts 15°
2026-05-01 11:30 23.46515 113.32952 4795 ft 163 kts 14°
2026-05-01 11:31 23.47719 113.33287 5005 ft 196 kts 14°
2026-05-01 11:31 23.49168 113.33707 5004 ft 228 kts 20°
2026-05-01 11:31 23.50450 113.34713 5000 ft 230 kts 54°
2026-05-01 11:31 23.51019 113.36295 4994 ft 224 kts 89°
2026-05-01 11:32 23.50688 113.37896 5003 ft 218 kts 124°
2026-05-01 11:32 23.49619 113.38964 5004 ft 208 kts 159°
2026-05-01 11:32 23.48218 113.39130 4998 ft 207 kts 192°
2026-05-01 11:32 23.46784 113.38776 4966 ft 212 kts 194°
2026-05-01 11:33 23.45353 113.38417 4844 ft 210 kts 194°
2026-05-01 11:33 23.43938 113.38054 4719 ft 209 kts 193°
2026-05-01 11:33 23.42520 113.37689 4596 ft 209 kts 194°
2026-05-01 11:33 23.41111 113.37326 4472 ft 208 kts 194°
2026-05-01 11:34 23.39719 113.36962 4350 ft 208 kts 194°
2026-05-01 11:34 23.38315 113.36593 4224 ft 207 kts 194°
2026-05-01 11:34 23.36913 113.36221 4104 ft 207 kts 194°
2026-05-01 11:34 23.35511 113.35844 3979 ft 208 kts 194°
2026-05-01 11:35 23.34108 113.35464 3853 ft 208 kts 194°
2026-05-01 11:35 23.32707 113.35082 3713 ft 208 kts 194°
2026-05-01 11:35 23.31303 113.34695 3516 ft 207 kts 194°
2026-05-01 11:35 23.29908 113.34304 3329 ft 207 kts 194°
2026-05-01 11:36 23.28511 113.33908 3025 ft 208 kts 194°
2026-05-01 11:36 23.27117 113.33514 2659 ft 206 kts 193°
2026-05-01 11:36 23.25734 113.33120 2284 ft 205 kts 194°
2026-05-01 11:36 23.24370 113.32730 2058 ft 203 kts 194°
2026-05-01 11:37 23.23054 113.32355 1997 ft 184 kts 193°
2026-05-01 11:37 23.21837 113.32006 2004 ft 185 kts 194°
2026-05-01 11:37 23.20603 113.31655 2005 ft 182 kts 194°
2026-05-01 11:37 23.19383 113.31301 2006 ft 181 kts 193°
2026-05-01 11:38 23.18175 113.30940 2002 ft 180 kts 194°
2026-05-01 11:38 23.16972 113.30576 2007 ft 180 kts 194°
2026-05-01 11:38 23.15817 113.30226 1998 ft 159 kts 194°
2026-05-01 11:38 23.14906 113.29814 1983 ft 134 kts 221°
2026-05-01 11:39 23.14597 113.28857 2001 ft 142 kts 273°
2026-05-01 11:39 23.15073 113.27947 2017 ft 145 kts 308°
2026-05-01 11:39 23.15751 113.27129 2004 ft 146 kts 309°
2026-05-01 11:39 23.16447 113.26296 2005 ft 147 kts 309°
2026-05-01 11:40 23.17266 113.25664 2006 ft 150 kts 339°
2026-05-01 11:40 23.18309 113.25501 2004 ft 150 kts
2026-05-01 11:40 23.19325 113.25647 2004 ft 149 kts 14°
2026-05-01 11:40 23.20334 113.25898 2003 ft 148 kts 17°
2026-05-01 11:41 23.21332 113.26166 2004 ft 147 kts 16°
2026-05-01 11:41 23.22318 113.26431 2000 ft 146 kts 16°
2026-05-01 11:41 23.23301 113.26696 2004 ft 146 kts 16°
2026-05-01 11:41 23.24284 113.26960 2003 ft 146 kts 15°
2026-05-01 11:42 23.25267 113.27224 2003 ft 146 kts 15°
2026-05-01 11:42 23.26250 113.27489 2003 ft 147 kts 16°
2026-05-01 11:42 23.27241 113.27755 2000 ft 147 kts 15°
2026-05-01 11:42 23.28237 113.28023 1863 ft 147 kts 15°
2026-05-01 11:43 23.29221 113.28288 1670 ft 145 kts 15°
2026-05-01 11:43 23.30193 113.28550 1487 ft 143 kts 15°
2026-05-01 11:43 23.31153 113.28808 1299 ft 141 kts 15°
2026-05-01 11:44 23.33048 113.29319 957 ft 139 kts 15°
2026-05-01 11:44 23.33985 113.29569 783 ft 137 kts 15°
2026-05-01 11:44 23.34911 113.29817 597 ft 137 kts 16°
2026-05-01 11:44 23.35829 113.30078 414 ft 135 kts 16°
2026-05-01 11:45 23.36742 113.30309 247 ft 134 kts 13°
2026-05-01 11:45 23.37652 113.30553 92 ft 134 kts 15°
2026-05-01 11:45 23.38506 113.30783 54 ft 116 kts 17°
2026-05-01 11:45 23.39097 113.30949 52 ft 64 kts 15°
2026-05-01 11:46 23.39335 113.31012 54 ft 24 kts 13°
2026-05-01 11:46 23.39479 113.31050 53 ft 0 kts 14°
2026-05-01 11:46 23.39495 113.31054 55 ft 5 kts 14°
2026-05-01 11:46 23.39546 113.31067 54 ft 10 kts
2026-05-01 11:47 23.39632 113.31061 53 ft 15 kts 352°
2026-05-01 11:47 23.39732 113.31037 56 ft 14 kts 344°
2026-05-01 11:47 23.39832 113.31008 55 ft 16 kts 346°
2026-05-01 11:47 23.39937 113.30983 55 ft 11 kts 356°
2026-05-01 11:48 23.39990 113.30941 54 ft 10 kts 283°
2026-05-01 11:48 23.40032 113.30900 54 ft 8 kts 16°
2026-05-01 11:48 23.40103 113.30917 51 ft 12 kts 15°
2026-05-01 11:48 23.40184 113.30932 54 ft 12 kts 348°
2026-05-01 11:49 23.40216 113.30859 58 ft 10 kts 285°
2026-05-01 11:49 23.40238 113.30774 58 ft 13 kts 284°
2026-05-01 11:49 23.40258 113.30688 58 ft 0 kts 283°
2026-05-01 11:49 23.40261 113.30671 55 ft 5 kts 283°
2026-05-01 11:50 23.40272 113.30621 58 ft 9 kts 283°
2026-05-01 11:50 23.40279 113.30578 56 ft 4 kts 259°
2026-05-01 11:50 23.40250 113.30567 54 ft 2 kts 174°
2026-05-01 11:50 23.40232 113.30563 54 ft 3 kts 195°
2026-05-01 11:51 23.40225 113.30561 54 ft 0 kts 194°
2026-05-01 11:51 23.40226 113.30561 54 ft 0 kts 194°
2026-05-01 11:51 23.40227 113.30561 54 ft 2 kts 194°
2026-05-01 11:52 23.40223 113.30560 54 ft 0 kts 194°
2026-05-01 11:52 23.40241 113.30565 56 ft 7 kts 194°
2026-05-01 11:52 23.40235 113.30563 54 ft 4 kts 194°
2026-05-01 11:52 23.40227 113.30561 54 ft 2 kts 194°
2026-05-01 11:53 23.40225 113.30561 54 ft 0 kts 194°
2026-05-01 11:53 23.40230 113.30562 54 ft 1 kts 194°
2026-05-01 11:53 23.40226 113.30561 58 ft 0 kts 194°